DW1105 Weather Reports


Display with metric or nautical units.
time (UTC)temp
F
wind
direction
speed
MPH
gust
MPH
rain 1hr
in
rain 24hr
in
rain mn
in
humidity
%
barometer
mb
20260906131826 68 9 1.0 5.0 0.00 0.00 0.00 79 1015.1
20260906131323 68 330 2.0 5.0 0.00 0.00 0.00 79 1015.1
20260906130819 68 343 2.0 4.0 0.00 0.00 0.00 80 1015.1
20260906130316 67 5 1.0 9.0 0.00 0.00 0.00 81 1015.1
20260906125814 67 11 5.0 9.0 0.00 0.00 0.00 81 1015.1
20260906125312 67 340 4.0 9.0 0.00 0.00 0.00 82 1015.2
20260906124829 66 360 4.0 11.0 0.00 0.00 0.00 83 1015.1
20260906124311 66 360 3.0 11.0 0.00 0.00 0.00 83 1015.1
20260906123827 66 5 4.0 8.0 0.00 0.00 0.00 83 1014.9
20260906123324 66 339 3.0 8.0 0.00 0.00 0.00 84 1014.9
20260906122819 65 341 2.0 6.0 0.00 0.00 0.00 84 1014.9
20260906122316 65 5 4.0 6.0 0.00 0.00 0.00 85 1014.9
20260906121812 65 322 4.0 6.0 0.00 0.00 0.00 85 1014.9
20260906121311 65 331 3.0 5.0 0.00 0.00 0.00 86 1014.8
20260906120812 64 330 3.0 5.0 0.00 0.00 0.00 86 1014.7
20260906120329 64 351 2.0 5.0 0.00 0.00 0.00 86 1014.8
20260906115825 64 331 3.0 5.0 0.00 0.00 0.00 86 1014.8
20260906115322 64 330 2.0 4.0 0.00 0.00 0.00 86 1014.7
20260906114819 63 339 1.0 4.0 0.00 0.00 0.00 87 1014.6
20260906114315 63 344 2.0 4.0 0.00 0.00 0.00 88 1014.6
20260906113812 63 312 2.0 4.0 0.00 0.00 0.00 88 1014.6
20260906113312 62 331 2.0 4.0 0.00 0.00 0.00 89 1014.5
20260906112829 62 346 2.0 4.0 0.00 0.00 0.00 89 1014.4
20260906112328 62 324 2.0 4.0 0.00 0.00 0.00 90 1014.3
20260906111824 61 324 2.0 4.0 0.00 0.00 0.00 90 1014.2
20260906111322 61 333 2.0 3.0 0.00 0.00 0.00 90 1014.2
20260906110819 61 301 1.0 2.0 0.00 0.00 0.00 90 1014.2
20260906110316 61 318 1.0 2.0 0.00 0.00 0.00 91 1014.1
20260906105817 61 331 1.0 2.0 0.00 0.00 0.00 91 1014.2
20260906105315 61 331 1.0 2.0 0.00 0.00 0.00 91 1014.2
20260906104811 61 327 0.0 0.0 0.00 0.00 0.00 91 1014.1
20260906104330 61 327 0.0 0.0 0.00 0.00 0.00 91 1013.9
20260906103826 60 327 0.0 1.0 0.00 0.00 0.00 91 1013.8
20260906103323 60 327 0.0 2.0 0.00 0.00 0.00 91 1013.8
20260906102820 60 331 1.0 2.0 0.00 0.00 0.00 91 1013.8
20260906102323 61 315 2.0 3.0 0.00 0.00 0.00 91 1013.6
20260906101819 61 329 1.0 3.0 0.00 0.00 0.00 90 1013.7
20260906101317 61 355 1.0 3.0 0.00 0.00 0.00 91 1013.6
20260906100813 61 330 2.0 3.0 0.00 0.00 0.00 91 1013.6
20260906100310 61 333 1.0 3.0 0.00 0.00 0.00 91 1013.5
20260906095827 60 342 0.0 2.0 0.00 0.00 0.00 90 1013.5
20260906095326 61 342 0.0 2.0 0.00 0.00 0.00 91 1013.5
20260906094826 61 342 0.0 3.0 0.00 0.00 0.00 91 1013.5
20260906094324 61 342 1.0 3.0 0.00 0.00 0.00 91 1013.5
20260906093822 60 327 0.0 0.0 0.00 0.00 0.00 91 1013.4
20260906093318 60 327 0.0 0.0 0.00 0.00 0.00 90 1013.4
20260906092815 60 327 0.0 0.0 0.00 0.00 0.00 90 1013.2
20260906092314 60 327 0.0 0.0 0.00 0.00 0.00 90 1013.2
20260906091814 60 327 0.0 0.0 0.00 0.00 0.00 90 1013.1
20260906091312 60 327 0.0 0.0 0.00 0.00 0.00 90 1012.9
20260906090828 60 327 0.0 0.0 0.00 0.00 0.00 89 1012.7
20260906090325 61 327 0.0 0.0 0.00 0.00 0.00 89 1012.6
20260906085822 61 329 0.0 0.0 0.00 0.00 0.00 88 1012.6
20260906085320 62 329 0.0 1.0 0.00 0.00 0.00 88 1012.6
20260906084816 62 329 0.0 1.0 0.00 0.00 0.00 88 1012.6
20260906084318 62 329 0.0 1.0 0.00 0.00 0.00 88 1012.6
20260906083814 62 329 0.0 0.0 0.00 0.00 0.00 88 1012.7
20260906083311 62 329 0.0 3.0 0.00 0.00 0.00 88 1012.6
20260906082828 62 329 1.0 3.0 0.00 0.00 0.00 88 1012.6
20260906082327 62 327 1.0 3.0 0.00 0.00 0.00 88 1012.6
20260906081823 62 309 1.0 4.0 0.00 0.00 0.00 88 1012.6
20260906081321 62 324 2.0 4.0 0.00 0.00 0.00 88 1012.5
20260906080822 62 347 2.0 3.0 0.00 0.00 0.00 87 1012.5
20260906080319 62 324 0.0 3.0 0.00 0.00 0.00 87 1012.5
20260906075816 63 300 1.0 3.0 0.00 0.00 0.00 88 1012.4
20260906075315 62 322 2.0 3.0 0.00 0.00 0.00 88 1012.4
20260906074811 62 325 1.0 4.0 0.00 0.00 0.00 88 1012.4
20260906074330 62 343 1.0 4.0 0.00 0.00 0.00 89 1012.5
20260906073826 62 297 0.0 0.0 0.00 0.00 0.00 88 1012.4
20260906073327 62 297 0.0 0.0 0.00 0.00 0.00 88 1012.5
20260906072824 62 297 0.0 0.0 0.00 0.00 0.00 87 1012.5
20260906072321 63 297 0.0 0.0 0.00 0.00 0.00 87 1012.5
20260906071818 63 297 0.0 1.0 0.00 0.00 0.00 86 1012.5
20260906071317 63 297 0.0 2.0 0.00 0.00 0.00 86 1012.5
20260906070813 63 299 1.0 1.0 0.00 0.00 0.00 86 1012.4
20260906070310 64 319 0.0 2.0 0.00 0.00 0.00 86 1012.3
20260906065811 64 332 0.0 2.0 0.00 0.00 0.00 86 1012.2
20260906065330 64 9 0.0 2.0 0.00 0.00 0.00 86 1012.3
20260906064826 64 325 0.0 3.0 0.00 0.00 0.00 86 1012.3
20260906064324 64 313 0.0 2.0 0.00 0.00 0.00 86 1012.4
20260906063821 64 5 0.0 2.0 0.00 0.00 0.00 86 1012.5
20260906063318 64 302 0.0 3.0 0.00 0.00 0.00 85 1012.4
20260906062815 64 302 0.0 3.0 0.00 0.00 0.00 85 1012.3
20260906062317 64 314 1.0 2.0 0.00 0.00 0.00 85 1012.3
20260906061814 64 325 1.0 2.0 0.00 0.00 0.00 85 1012.5
20260906061312 64 324 0.0 1.0 0.00 0.00 0.00 85 1012.7
20260906060829 64 324 0.0 0.0 0.00 0.00 0.00 85 1012.7
20260906060326 64 324 0.0 0.0 0.00 0.00 0.00 85 1012.6
20260906055823 64 324 0.0 0.0 0.00 0.00 0.00 84 1012.7
20260906055320 64 324 0.0 0.0 0.00 0.00 0.00 83 1012.9
20260906054821 65 324 0.0 1.0 0.00 0.00 0.00 82 1012.8
20260906054319 65 324 0.0 2.0 0.00 0.00 0.00 82 1012.8
20260906053816 65 324 1.0 2.0 0.00 0.00 0.00 82 1012.7
20260906053313 66 319 1.0 3.0 0.00 0.00 0.00 82 1012.7
20260906052810 66 313 1.0 3.0 0.00 0.00 0.00 81 1012.7
20260906052329 66 314 1.0 2.0 0.00 0.00 0.00 81 1012.6
20260906051825 66 325 1.0 3.0 0.00 0.00 0.00 81 1012.6
20260906051328 66 329 2.0 3.0 0.00 0.00 0.00 81 1012.6
20260906050824 66 309 2.0 3.0 0.00 0.00 0.00 81 1012.7
20260906050321 66 333 2.0 4.0 0.00 0.00 0.00 81 1012.7
20260906045818 66 327 1.0 4.0 0.00 0.00 0.00 80 1012.7
20260906045316 66 315 1.0 3.0 0.00 0.00 0.00 81 1012.8
20260906044812 66 314 1.0 3.0 0.00 0.00 0.00 80 1012.8
20260906044314 66 329 2.0 5.0 0.00 0.00 0.00 80 1012.8
20260906043811 67 323 2.0 5.0 0.00 0.00 0.00 79 1012.8
20260906043328 67 294 2.0 4.0 0.00 0.00 0.00 80 1012.7
20260906042825 67 306 1.0 3.0 0.00 0.00 0.00 80 1012.8
20260906042323 67 339 2.0 3.0 0.00 0.00 0.00 79 1012.7
20260906041820 67 81 1.0 2.0 0.00 0.00 0.00 79 1012.7
20260906041319 67 5 0.0 3.0 0.00 0.00 0.00 80 1012.7
20260906040819 67 344 1.0 4.0 0.00 0.00 0.00 80 1012.7
20260906040316 67 340 1.0 4.0 0.00 0.00 0.00 79 1012.7
20260906035813 68 329 2.0 4.0 0.00 0.00 0.00 79 1012.7
20260906035311 67 312 3.0 4.0 0.00 0.00 0.00 78 1012.8
20260906034827 67 322 2.0 5.0 0.00 0.00 0.00 78 1012.8
20260906034325 67 310 2.0 5.0 0.00 0.00 0.00 78 1012.9
20260906033822 67 329 1.0 3.0 0.00 0.00 0.00 79 1012.7
20260906033323 67 335 1.0 3.0 0.00 0.00 0.00 80 1012.6
20260906032820 67 327 1.0 2.0 0.00 0.00 0.00 80 1012.7
20260906032318 67 342 0.0 3.0 0.00 0.00 0.00 80 1012.6
20260906031815 67 347 1.0 3.0 0.00 0.00 0.00 80 1012.6
20260906031312 67 325 1.0 3.0 0.00 0.00 0.00 81 1012.6
20260906030829 67 346 1.0 3.0 0.00 0.00 0.00 82 1012.6
20260906030326 67 348 0.0 2.0 0.00 0.00 0.00 83 1012.6
20260906025827 67 317 0.0 1.0 0.00 0.00 0.00 82 1012.5
20260906025325 67 350 0.0 2.0 0.00 0.00 0.00 82 1012.6
20260906024822 67 350 0.0 2.0 0.00 0.00 0.00 82 1012.7
20260906024320 68 319 0.0 2.0 0.00 0.00 0.00 81 1012.6
20260906023817 68 319 0.0 2.0 0.00 0.00 0.00 81 1012.5
20260906023314 68 355 0.0 3.0 0.00 0.00 0.00 82 1012.5
20260906022811 68 107 1.0 3.0 0.00 0.00 0.00 83 1012.5
20260906022313 68 342 0.0 3.0 0.00 0.00 0.00 83 1012.4
20260906021810 68 348 1.0 3.0 0.00 0.00 0.00 82 1012.3
20260906021327 68 5 0.0 2.0 0.00 0.00 0.00 82 1012.3
20260906020824 68 349 0.0 2.0 0.00 0.00 0.00 82 1012.4
20260906020321 69 355 1.0 2.0 0.00 0.00 0.00 82 1012.3
20260906015818 69 337 0.0 2.0 0.00 0.00 0.00 81 1012.4
20260906015315 69 328 0.0 6.0 0.00 0.00 0.00 81 1012.3
20260906014815 69 347 2.0 6.0 0.00 0.00 0.00 81 1012.3
20260906014313 69 334 0.0 2.0 0.00 0.00 0.00 81 1012.2
20260906013829 69 317 0.0 3.0 0.00 0.00 0.00 81 1012.2
20260906013326 69 317 1.0 3.0 0.00 0.00 0.00 81 1012.1
20260906012823 69 5 1.0 2.0 0.00 0.00 0.00 80 1012.1
20260906012320 70 301 1.0 3.0 0.00 0.00 0.00 81 1012.0
20260906011817 70 311 2.0 3.0 0.00 0.00 0.00 80 1012.0
20260906011319 70 309 2.0 3.0 0.00 0.00 0.00 80 1012.0
20260906010816 70 317 1.0 3.0 0.00 0.00 0.00 80 1012.0
20260906010313 70 329 0.0 2.0 0.00 0.00 0.00 80 1012.0
20260906005810 70 319 0.0 1.0 0.00 0.00 0.00 81 1011.9
20260906005328 70 302 0.0 3.0 0.00 0.00 0.00 80 1011.8
20260906004825 70 303 0.0 3.0 0.00 0.00 0.00 81 1011.7
20260906004323 70 327 1.0 3.0 0.00 0.00 0.00 81 1011.8
20260906003824 70 315 2.0 3.0 0.00 0.00 0.00 81 1011.7
20260906003321 70 355 1.0 4.0 0.00 0.00 0.00 82 1011.7
20260906002818 70 27 2.0 4.0 0.00 0.00 0.00 82 1011.7
20260906002315 70 319 1.0 2.0 0.00 0.00 0.00 83 1011.6
20260906001812 70 314 1.0 2.0 0.00 0.00 0.00 83 1011.5
20260906001330 70 321 1.0 2.0 0.00 0.00 0.00 83 1011.4
20260906000810 70 320 1.0 2.0 0.00 0.00 0.00 83 1011.4
20260906000327 70 298 0.0 0.0 0.00 0.00 0.00 82 1011.2
20260905235824 70 299 0.0 0.0 0.00 0.00 0.00 82 1011.2
20260905235322 70 299 0.0 0.0 0.00 0.00 0.00 81 1011.1
20260905234819 70 317 0.0 0.0 0.00 0.00 0.00 80 1011.1
20260905234316 71 317 0.0 0.0 0.00 0.00 0.00 79 1011.0
20260905233813 71 317 0.0 1.0 0.00 0.00 0.00 79 1010.9
20260905233314 71 317 0.0 1.0 0.00 0.00 0.00 80 1010.9
20260905232928 71 310 0.0 0.0 0.00 0.00 0.00 79 1010.9
20260905145826 74 303 2.0 8.0 0.00 0.01 0.00 71 1011.2
20260905145324 73 22 4.0 8.0 0.00 0.01 0.00 70 1011.2
20260905144821 72 22 2.0 11.0 0.00 0.01 0.00 69 1011.2
20260905144318 72 61 5.0 11.0 0.00 0.01 0.00 69 1011.2
20260905143815 72 349 2.0 9.0 0.00 0.01 0.00 69 1011.2
20260905143312 72 28 2.0 9.0 0.00 0.01 0.00 70 1011.2
20260905142812 72 47 4.0 12.0 0.00 0.01 0.00 71 1011.0
20260905142329 72 14 5.0 12.0 0.00 0.01 0.00 71 1011.1
20260905141826 72 346 3.0 10.0 0.00 0.01 0.00 72 1011.1
20260905141324 72 333 3.0 9.0 0.00 0.01 0.00 72 1011.1
20260905140821 71 30 4.0 15.0 0.00 0.01 0.00 70 1011.1
20260905140318 71 256 4.0 9.0 0.00 0.01 0.00 73 1011.1
20260905135814 71 302 4.0 11.0 0.00 0.01 0.00 72 1011.1
20260905135316 71 321 5.0 11.0 0.00 0.01 0.00 72 1011.1
20260905134813 71 326 4.0 10.0 0.00 0.01 0.00 72 1011.0
20260905134310 71 332 4.0 10.0 0.00 0.01 0.00 74 1011.0
20260905133827 71 355 2.0 11.0 0.00 0.01 0.00 73 1010.9
20260905133324 71 279 4.0 11.0 0.00 0.01 0.00 74 1011.1
20260905132820 70 23 3.0 11.0 0.00 0.01 0.00 73 1011.0
20260905132318 71 296 2.0 11.0 0.00 0.01 0.00 74 1011.0